Location: Casilda
(33.0440°S, 61.1680°W)
Time: 02:07:06
(UTC-03:00)

ISS - Pass Details

Date: 22 June 2018
Orbit: 402 x 406 km, 51.6° (Epoch: 19 June)

Event Time Altitude Azimuth Distance (km) Brightness Sun altitude
Rises 20:00:02 0° 325° (NW) 2,311 0.7 -23.2°
Reaches altitude 10° 20:02:07 10° 329° (NNW) 1,458 -0.5 -23.6°
Enters shadow 20:03:37 24° 339° (NNW) 887 -1.8 -23.9°
